ELECTRON KICK STAGE R/B, 60353

Orbit data source: Space-Track

ELECTRON KICK STAGE R/B, 60353 is space debris in LEO originally from a launch on Fri, 02 Aug 2024 UTC launched from the Rocket Lab Launch Complex (RLLC). Debris objects in space refer to the collection of defunct objects orbiting the Earth. Examples of debris include non-operational satellites, rocket bodies, and fragments generated from explosions, collisions, or faulty payload assembly.

Loading next visibility...
ELECTRON KICK STAGE R/B details
Identifier
60353, 2024-137B
Orbit
LEO
Last TLE update10 hours ago
Origin
Flag of USRocket Lab (US)
ManufacturerRocket Lab
MissionSpacecraft
Bus & MotorKICK STAGE, CURIE
Mass~50 kg wet, ~50 kg dry
Launch date (UTC)
2024-08-02 (5 months ago)
Launch vehicleUnknown
Launch site
Rocket Lab Launch Complex (RLLC)
Object type
Payload
Rocket body
Debris
Shape & HBRUnknown
Radar Cross SectionMedium (>0.1 m² and <1 m²)

Expand to show TLE details & history

TLE from 10 hours ago
0 ELECTRON KICK STAGE R/B
1 60353U 24137B   25014.91558127  .00098036  00000-0  14311-2 0  9992
2 60353  43.0099 272.0118 0023692   9.1607 350.9683 15.54304051 25436
Epoch: 2025-01-14T21:58Z
Definitive object data (Epoch: 2025-01-14T21:58:26.221Z)
Latitude-0.00001°
Longitude-172.21289°
Altitude388.084 km
Speed7.688 km/s
True Right ascension18h 08m 02s
True Declination0° 00' 00"
Sunlit
Object was in daylight at TLE epoch
Visualization TLE readout
Latitude10.37891°
Longitude-5.91289°
Altitude417.211 km
Speed7.655 km/s
Apparent Right ascension02h 06m 41s
Apparent Declination-28° 44' 28"
Sunlit
Object is in full shadow
Visualization observer readout
Local Sidereal Time08:35:31
Azimuth251.076° W
Elevation-23.135°
Doppler factor1
Orbital elements
Apogee altitude422.216 km
Perigee altitude390.069 km
Semi-major axis6,784.279 km
Eccentricity0.0023692
Inclination43.0099°
RAAN272.0118°
Arg. of periapsis9.1607°
True anomaly350.92556°
Mean anomaly350.9683°
Eccentric anomaly350.94694°
Mean motion3.88407 °/min
BSTAR0.0014311
Orbital period92.69 mins
Loading maneuver chart data...
Loading historical data...
Loading historical data...
Loading historical data...
Loading historical data...
Loading historical data...
Loading historical data...
Loading historical data...
Other satellites on launch #137 in the year 2024 (2024-08-02 UTC)

ELECTRON KICK STAGE R/B Visibility forecast

Observer location: undefined°, undefined

Span
Click to sort rows by Start time (UTC) header in descending order
Start Az.
Max El. time (UTC)
Max El. Az.
Max El.
End time (UTC)
End Az.
4 mins2025-01-15 19:45:53.884Z190.011° SSW2025-01-15 19:47:53.884Z141.912° SSE19.808°2025-01-15 19:49:53.884Z98.996° ESE
4 mins2025-01-15 21:22:53.884Z256.133° W2025-01-15 21:24:53.884Z50.414° ENE43.439°2025-01-15 21:26:53.884Z70.146° E
5 mins2025-01-15 22:59:53.884Z292.117° WNW2025-01-15 23:01:53.884Z356.107° N35.7°2025-01-15 23:04:53.884Z74.623° E
4 mins2025-01-16 00:37:53.884Z291.312° WNW2025-01-16 00:38:53.884Z301.131° NW42.315°2025-01-16 00:41:53.884Z105.877° ESE
|